Regional Weather Roundup
Issued by NWS Cleveland, OH

Home | Current Version | Previous Version | Graphics & Text | Print | Product List | Glossary On
Versions: 1 2 3 4 5 6 7 8 9 10 11 12 13 14 15 16 17 18 19 20 21 22 23 24 25 26 27 28 29 30 31 32 33 34 35 36 37 38 39 40 41 42 43 44 45 46 47 48 49 50
000
ASUS41 KCLE 250610
RWRCLE
OHIO REGIONAL WEATHER ROUNDUP
NATIONAL WEATHER SERVICE WILMINGTON, OH
200 AM EDT WED MAY 25 2016

NOTE: "FAIR" INDICATES FEW OR NO CLOUDS BELOW 12,000 FEET WITH NO
SIGNIFICANT WEATHER AND/OR OBSTRUCTIONS TO VISIBILITY.

OHZ001>008-015>018-024>027-034-035-043-044-250700-
   NORTHWEST OHIO

CITY           SKY/WX    TMP DP  RH WIND       PRES   REMARKS
DEFIANCE       FAIR      64  45  49 S3        30.04S
FINDLAY        FAIR      63  46  54 S9        30.06R
TOLEDO EXPRESS FAIR      63  44  50 S6        30.04R
TOLEDO EXEC    FAIR      63  43  48 S7        30.04F
LIMA           FAIR      63  48  58 S8        30.07S
$$

OHZ009>014-019>023-028>033-038-089-250700-
   NORTHEAST OHIO

CITY           SKY/WX    TMP DP  RH WIND       PRES   REMARKS
CLE-HOPKINS    FAIR      66  47  50 S9        30.08S
CLE-LAKEFRONT  FAIR      67  47  48 S10       30.04S
CUY CO. ARPT   NOT AVBL
LORAIN-ELYRIA  FAIR      59  46  62 S6        30.07S
ASHTABULA      FAIR      56  45  66 S3        30.07F
AKRON-CANTON   FAIR      62  49  62 SW3       30.10S
WOOSTER        FAIR      55  50  83 CALM      30.10S
MANSFIELD      FAIR      62  46  55 S6        30.10S
YOUNGSTOWN     MOCLDY    61  46  57 S6        30.09S
$$

OHZ042-051>053-060>062-070>072-077>081-250700-
  SOUTHWEST OHIO

CITY           SKY/WX    TMP DP  RH WIND       PRES   REMARKS
CINC-COVINGTON MOCLDY    65  50  58 S6        30.09F
CINC-LUNKEN    FAIR      56  54  93 CALM      30.10S
HAMILTON       FAIR      56  53  90 CALM      30.09F
DAYTON         FAIR      66  47  50 S8        30.10S
WRIGHT-PAT AFB NOT AVBL
DAYTON GENERAL FAIR      65  45  48 S6        30.09S
WILMINGTON     FAIR      61  49  64 S3        30.11R
$$

OHZ036-037-039>041-045>050-054>059-063>069-073>076-082>088-250700-
  CENTRAL AND SOUTHEAST OHIO

CITY           SKY/WX    TMP DP  RH WIND       PRES   REMARKS
COLUMBUS       FAIR      58  53  84 CALM      30.10R
OSU AIRPORT    NOT AVBL
BOLTON FIELD   FAIR      60  51  72 SW6       30.11R
RICKENBACK AFB FAIR      60  52  73 CALM      30.10R
NEWARK         FAIR      55  51  86 CALM      30.10S
MARION         FAIR      57  46  66 S8        30.09S
LANCASTER      FAIR      53  51  93 CALM      30.11S
ZANESVILLE     FAIR      58  53  84 CALM      30.11S
NEW PHILLY     FAIR      58  53  84 SE3       30.11S
$$



USA.gov is the U.S. government's official web portal to all federal, state and local government web resources and services.